Showing default

IRIDE-MS2-HEO-4, 64582

Orbit data source: Space-Track

IRIDE-MS2-HEO-4, 64582 is an Italian payload satellite in SSO that was launched on Mon, 23 Jun 2025 UTC via an FALCON 9 launch vehicle from the Air Force Western Test Range (AFWTR). Payload-class satellites include a variety of spacecraft equipped with specific instruments for various scientific and technological missions. These include communications satellites like Starlink; space stations such as the ISS; scientific satellites like the Hubble; Earth observation satellites from companies like Planet Labs, Umbra, and HawkEye 360; GPS; miniature CubeSats for education and research; and military/defense satellites.

Loading next visibility...
Identifier
64582, 2025-135BG
Orbit
SSO
Country
Flag of ITIT
Related business
Manufacturer
ArgoTec
Mission
Operational Civil Imaging
Bus & Motor
HAWK, Unknown motor
Mass
65 kg wet, 65 kg dry
Launch date (UTC)
2025-06-23 (8 months ago)
Launch vehicle
FALCON 9
Launch site
Air Force Western Test Range (AFWTR)
Object type
Payload
Rocket body
Debris
Shape & HBR
Box + 2 Pan, 3.0 m
Radar Cross Section
0.683 m², Medium (>0.1 m² and < 1m²)

Expand to show TLE details & history
Last TLE update: 8 hours ago

TLE from 8 hours ago
0 IRIDE-MS2-HEO-4
1 64582U 25135BG  26062.49885034  .00003119  00000-0  29833-3 0  9990
2 64582  97.7592 178.1926 0003847 349.6321  10.4819 14.93936150 38128
Epoch: 2026-03-03T11:58Z
TLE epoch observation values (Epoch: 2026-03-03T11:58:20.669Z)
Latitude
-0.00001°
Longitude
-162.67056°
Altitude
586.087 km
Speed
7.569 km/s
True Right ascension
11h 52m 46s
True Declination
0° 00' 00"
Sunlit
Object was in full shadow at epoch
Visualization orbit readout
Latitude
Unknown
Longitude
Unknown
Altitude
Unknown
Speed
Unknown
Apparent Right ascension
Unknown
Apparent Declination
Unknown
Sunlit
N/A
Visualization observer readout
Local Sidereal Time
23:38:36
Azimuth
Unknown
Elevation
Unknown
Doppler factor
Unknown
Orbital elements
Apogee altitude
585.371 km
Perigee altitude
580.015 km
Semi-major axis
6,960.83 km
Eccentricity
0.00038
Inclination
97.7592°
RAAN
178.1926°
Arg. of periapsis
349.6321°
True anomaly
10.48992°
Mean anomaly
10.4819°
Eccentric anomaly
10.48591°
Mean motion
3.73725 °/min
Orbital period
96.33 mins
BSTAR
0.00029833
Loading maneuver chart data...
Computing Atmospheric mass density...
Loading historical data...
Loading historical data...
Loading historical data...
Loading historical data...
Loading historical data...
Loading historical data...
Loading historical data...

Documentation

Showing up to 5 results
|